Regional Weather Roundup
Issued by NWS

Home | Current Version | Previous Version | Text Only | Print | Product List | Glossary Off
Versions: 1 2 3 4 5 6 7 8 9 10 11 12 13 14 15 16 17 18 19 20 21 22 23 24 25 26 27

000
ASUS45 KTFX 242110
RWRMT
MONTANA REGIONAL WEATHER ROUNDUP
NATIONAL WEATHER SERVICE GREAT FALLS MT
300 PM MDT FRI MAR 24 2017

NOTE: "FAIR" INDICATES FEW OR NO CLOUDS BELOW 12000 FEET WITH NO
SIGNIFICANT WEATHER AND/OR OBSTRUCTIONS TO VISIBILITY.

MTZ001>007-043-242200-
WEST OF THE DIVIDE

CITY           SKY/WX    TMP DP  RH WIND       PRES   REMARKS
KALISPELL      CLOUDY    44  26  49 CALM      29.83F
MISSOULA       CLOUDY    55  26  32 SE8       29.81F
BUTTE          CLOUDY    55  19  24 S22G31    29.89F
MULLAN PASS    LGT SNOW  32  30  93 VRB6      29.81S VSB 3/4 WCI  26
ANACONDA         N/A     61  16  17 SW14G25   29.84F
DEER LODGE       N/A     57  19  23 SE20G29   29.83F
EUREKA           N/A     43  27  52 CALM      29.82F
HAMILTON         N/A     61  21  21 S13G20    29.78F
PLAINS           N/A     55  31  40 CALM      29.84F
RONAN            N/A     46  28  49 NW7       29.88F
$$

MTZ008-052>055-242200-
SOUTHWEST MONTANA

CITY           SKY/WX    TMP DP  RH WIND       PRES   REMARKS
BOZEMAN        CLOUDY    62  17  17 S13G18    29.88F
DILLON         CLOUDY    55  21  26 S16G31    29.91F
W YELLOWSTONE  SUNNY     41  19  42 SW21G39   30.08F
ENNIS          SUNNY     54  19  26 S35G44    30.00F
THREE FORKS      N/A     60  60 100 S24       29.88F
TWIN BRIDGES     N/A     55  16  21 SE15      29.92F
$$

MTZ009-010-012-014-046-048-049-054-242200-
EAST SLOPES AND CENTRAL MONTANA

CITY           SKY/WX    TMP DP  RH WIND       PRES   REMARKS
CUT BANK       MOSUNNY   55  19  24 SW8G20    29.76F
GREAT FALLS    CLOUDY    65  16  15 S24G31    29.78F
MALMSTROM AFB  MOSUNNY   64  16  15 SW21G31   29.79F
HELENA         SUNNY     62  18  18 S21G31    29.81F
AUGUSTA        PTSUNNY   56  19  23 S20G25    29.77F
BOWMANS CRNR     N/A     57  20  23 S26G33    29.76F
CHOTEAU          N/A     61  18  18 S23       29.77F
CONRAD           N/A     61  26  26 SE21      29.81F
FAIRFIELD        N/A     59  17  19 S22G31    29.76F
POWER          PTSUNNY   62  14  15 S22G28    29.77F
RAYNESFORD       N/A     62  15  16 SW15G31   29.81F
$$

MTZ011-013-016-021-045-047-050-051-242200-
NORTH CENTRAL MONTANA

CITY           SKY/WX    TMP DP  RH WIND       PRES   REMARKS
HAVRE          MOSUNNY   64  21  19 S16G22    29.80F
LEWISTOWN      SUNNY     62   8  12 SW15G21   29.86F
N BAR RANCH      N/A     59  21  23 S16G25    29.92F
CHINOOK          N/A     64  21  19 SE13G21   29.82F
DENTON           N/A     63  22  20 S24G35    29.80F
FORT BENTON      N/A     64  18  16 N8        29.79F
GEYSER           N/A     62  11  13 CALM      29.81F
GRASS RANGE      N/A     61  21  21 S20       29.84F
STANFORD         N/A     59  17  19 S24G30    29.83F
WINIFRED         N/A     63  14  15 SW18G25   29.83F
$$

MTZ017>020-022>027-061-062-242200-
NORTHEAST MONTANA

CITY           SKY/WX    TMP DP  RH WIND       PRES   REMARKS
GLASGOW        SUNNY     64  26  23 S15       29.92F
JORDAN           N/A     63  27  25 S15G30    29.93F
SIDNEY         SUNNY     63  25  23 SW10      30.02F
WOLF POINT     SUNNY     66  25  21 S5G16     29.96F
MALTA          SUNNY     61  30  31 S14       29.87F
PLENTYWOOD       N/A     57  37  47 S13G18    30.01F
POPLAR           N/A     64  27  24 S14       29.97F
SCOBEY           N/A     61  29  29 S8        29.96F
$$

MTZ028>42-056>058-242200-
SOUTHCENTRAL AND SOUTHEAST MONTANA

CITY           SKY/WX    TMP DP  RH WIND       PRES   REMARKS
BAKER          SUNNY     60  24  25 SW9G18    30.05F
BILLINGS       MOSUNNY   64  18  17 SW12G21   29.91F
LIVINGSTON     SUNNY     63  17  17 SW26G36   29.89F
MILES CITY     SUNNY     64  30  27 S8G20     29.98F
BIG TIMBER     SUNNY     59  27  29 N5G12     29.93F
EKALAKA          N/A     58  25  28 SW6       30.03F
FORSYTH          N/A     63  30  29 S13       29.96F
HARLOWTON        N/A     61  22  22 S24       29.88F
LAUREL           N/A     64  28  25 S15       29.92F
$$

REGIONAL REPORTS...DAKOTAS

CITY           SKY/WX    TMP DP  RH WIND       PRES   REMARKS
WILLISTON      SUNNY     57  32  38 SE14      30.06F
MINOT          SUNNY     40  29  64 E12       30.16F
DICKINSON      SUNNY     56  33  42 S7        30.05F
BEACH            N/A    N/A N/A N/A MISG        N/A
TIOGA            N/A     46  41  81 SE10G18   30.10F
WATFORD CITY     N/A     55  37  50 SE13G18   30.06F
BISMARCK       SUNNY     47  35  63 E9        30.16F
GRAND FORKS    CLOUDY    36  28  73 NE12      30.23R WCI  28
FARGO          CLOUDY    39  32  76 N20       30.18S WCI  29
BUFFALO SD       N/A     59  33  37 VRB5      30.01F
RAPID CITY     PTSUNNY   59  30  33 NW7       30.07F
$$

REGIONAL REPORTS...WYOMING/IDAHO/WASHINGTON

CITY           SKY/WX    TMP DP  RH WIND       PRES   REMARKS
GILLETTE       SUNNY     57  31  37 S8        30.06F
SHERIDAN       SUNNY     61  34  36 SE17      29.99F
BUFFALO WY     SUNNY     60  25  26 S9G17     30.02F
CODY           SUNNY     58  19  22 S12       30.01F
YELLOWSTONE LA   N/A     42  19  39 VRB5      30.11F
IDAHO FALLS    SUNNY     56  25  30 S10       30.07F
SALMON         PTSUNNY   61  25  25 SW24G31   29.85F
BOISE          CLOUDY    50  40  68 E26G35    29.96F
SPOKANE        LGT RAIN  43  39  86 S14       29.82F FOG
$$

REGIONAL REPORTS...ALBERTA

CITY           SKY/WX    TMP DP  RH WIND       PRES   REMARKS
EDMONTON       PTSUNNY   34  28  80 SE20      29.73F WCI  22
CALGARY        CLOUDY    55  23  28 SE17      29.63F
LETHBRIDGE     PTSUNNY   59  23  25 SW13G22   29.70F
MEDICINE HAT   PTSUNNY   57  23  26 S14G25    29.77F
WATERTON GATE    N/A     50  25  37 SW21G30     N/A
CARDSTON         N/A     54  25  32 SW15G22     N/A
MILK RIVER       N/A     57  27  30 SE14G21     N/A
$$

REGIONAL REPORTS...SASKATCHEWAN

CITY           SKY/WX    TMP DP  RH WIND       PRES   REMARKS
SWIFT CURRENT  MOSUNNY   55  27  33 S18       29.86F
REGINA         MOSUNNY   43  36  75 SE22G29   30.02F
SASKATOON      CLOUDY    43  28  56 E15G21    30.00F
CYPRESS HILLS    N/A     46  18  31 S17G25      N/A
VAL MARIE        N/A     59  28  31 S16G24      N/A
ROCKGLEN         N/A     59  28  31 SW21G26     N/A
ASSINIBOIA       N/A     32  27  80 E12G17      N/A  WCI  23
$$




USA.gov is the U.S. government's official web portal to all federal, state and local government web resources and services.